This demonstration page uses our WeatherBlox Daily Observations layout. Learn more.

38.89511, -77.03637

Hourly Observations for April 2, 2015

Temp ( °F °C ) Dew Point ( °F °C ) Humidity (%) Winds ( mph kmh ) Pressure ( in mb ) Visibility ( mi km ) Precip ( " mm )
12:52 am 00:52 Clear 46 8 30 -1 53 53 S 6 9 30.27 1025 10 16.09344 0 0
1:52 am 01:52 Clear 46 8 32 0 57 57 S 8 13 30.27 1025 10 16.09344 0 0
2:52 am 02:52 Clear 45 7 34 1 66 66 S 7 11 30.27 1025 10 16.09344 0 0
3:52 am 03:52 Mostly Clear 45 7 32 0 61 61 S 8 13 30.27 1025 10 16.09344 0 0
4:52 am 04:52 Clear 43 6 30 -1 61 61 S 6 9 30.27 1025 10 16.09344 0 0
5:52 am 05:52 Clear 43 6 30 -1 61 61 S 8 13 30.27 1025 10 16.09344 0 0
6:52 am 06:52 Mostly Sunny 43 6 32 0 66 66 SSW 7 11 30.27 1025 10 16.09344 0 0
7:52 am 07:52 Partly Cloudy 46 8 34 1 62 62 S 10 17 30.3 1026 10 16.09344 0 0
8:52 am 08:52 Partly Cloudy 50 10 32 0 50 50 S 16 26 30.27 1025 10 16.09344 0 0
9:52 am 09:52 Mostly Cloudy 55 13 32 0 41 41 S 16 26 30.27 1025 10 16.09344 0 0
10:52 am 10:52 Cloudy 61 16 32 0 34 34 SSW 22 35 30.24 1024 10 16.09344 0 0
11:52 am 11:52 Cloudy 63 17 32 0 32 32 SSW 24 39 30.21 1023 10 16.09344 0 0
12:52 pm 12:52 Cloudy 66 19 36 2 32 32 SSW 23 37 30.18 1022 10 16.09344 0 0
1:52 pm 13:52 Cloudy 70 21 36 2 29 29 SSW 25 41 30.12 1020 10 16.09344 0 0
2:52 pm 14:52 Mostly Cloudy 70 21 37 3 31 31 S 24 39 30.09 1019 10 16.09344 0 0
3:52 pm 15:52 Mostly Cloudy 73 23 37 3 27 27 S 24 39 30.06 1018 10 16.09344 0 0
4:52 pm 16:52 Mostly Cloudy 72 22 37 3 29 29 SSW 22 35 30.03 1017 10 16.09344 0 0
5:52 pm 17:52 Mostly Cloudy 73 23 39 4 29 29 SSW 21 33 30 1016 10 16.09344 0 0
6:52 pm 18:52 Mostly Cloudy 72 22 39 4 31 31 S 16 26 30 1016 10 16.09344 0 0
7:52 pm 19:52 Mostly Cloudy 70 21 39 4 33 33 S 13 20 29.97 1015 10 16.09344 0 0
8:25 pm 20:25 Mostly Cloudy 64 18 43 6 46 46 S 13 20 29.97 1015 10 16.09344 0 0
8:52 pm 20:52 Cloudy 70 21 39 4 33 33 SSW 15 24 29.97 1015 10 16.09344 0 0
9:52 pm 21:52 Mostly Clear 68 20 39 4 35 35 S 14 22 29.97 1015 10 16.09344 0 0
10:52 pm 22:52 Partly Cloudy 68 20 39 4 35 35 SSW 16 26 29.97 1015 10 16.09344 0 0
11:52 pm 23:52 Clear 66 19 41 5 40 40 SSW 15 24 29.97 1015 10 16.09344 0 0

Powered by AerisWeather